Hourly Data Report for September 15, 2018

TORONTO CITY
ONTARIO
Current Station Operator: ECCC - MSC

43°40'00.000" N
79°24'00.000" W
112.50 m
6158355
71508
XTO

Download Data

Hourly Data (September 2018)
Hourly Data Report for September 15, 2018
TIME
LST
Temp Definition
°C
Dew Point Definition
°C
Rel Hum Definition
%
Precip. Amount Definition
mm

Wind Dir Definition
10's deg

Wind Spd Definition
km/h
Visibility Definition
km
Stn Press Definition
kPa
Hmdx Definition


Wind Chill Definition


Weather Definition


00:00 23.0 18.8 78 0.0 LegendMM LegendMM   100.73 30   LegendNANA
01:00 21.8 18.6 82 0.0 LegendMM LegendMM   100.70 28   LegendNANA
02:00 22.2 18.8 81 0.0 LegendMM LegendMM   100.72 29   LegendNANA
03:00 22.4 18.7 80 0.0 LegendMM LegendMM   100.74 29   LegendNANA
04:00 22.1 18.6 81 0.0 LegendMM LegendMM   100.75 29   LegendNANA
05:00 22.4 18.5 78 0.0 LegendMM LegendMM   100.79 29   LegendNANA
06:00 21.8 18.7 83 0.0 LegendMM LegendMM   100.80 28   LegendNANA
07:00 22.4 19.2 82 0.0 LegendMM LegendMM   100.84 29   LegendNANA
08:00 23.7 18.8 74 0.0 LegendMM LegendMM   100.85 30   LegendNANA
09:00 24.8 19.0 70 0.0 LegendMM LegendMM   100.87 32   LegendNANA
10:00 25.5 19.0 67 0.0 LegendMM LegendMM   100.91 32   LegendNANA
11:00 26.6 19.6 66 0.0 LegendMM LegendMM   100.89 34   LegendNANA
12:00 27.6 19.5 61 0.0 LegendMM LegendMM   100.88 35   LegendNANA
13:00 27.5 18.5 58 0.0 LegendMM LegendMM   100.86 34   LegendNANA
14:00 27.3 19.6 63 0.0 LegendMM LegendMM   100.81 35   LegendNANA
15:00 27.9 19.0 59 0.0 LegendMM LegendMM   100.77 35   LegendNANA
16:00 26.4 18.9 63 0.0 LegendMM LegendMM   100.76 33   LegendNANA
17:00 26.1 18.6 63 0.0 LegendMM LegendMM   100.74 33   LegendNANA
18:00 25.6 18.7 66 0.0 LegendMM LegendMM   100.74 32   LegendNANA
19:00 24.5 18.8 70 0.0 LegendMM LegendMM   100.76 31   LegendNANA
20:00 24.8 18.7 69 0.0 LegendMM LegendMM   100.79 31   LegendNANA
21:00 24.4 18.2 68 0.0 LegendMM LegendMM   100.79 31   LegendNANA
22:00 23.2 18.5 75 0.0 LegendMM LegendMM   100.84 30   LegendNANA
23:00 22.6 18.3 77 0.0 LegendMM LegendMM   100.86 29   LegendNANA

Notes on Data Quality.

Legend

  • E = Estimated
  • M = Missing
  • NA = Not Available*
  • [empty] = Indicates an unobserved value
Date modified: